Regional Weather Roundup
Issued by NWS

Home | Current Version | Previous Version | Graphics & Text | Print | Product List | Glossary On
Versions: 1 2 3 4 5 6 7 8 9 10 11 12 13 14 15 16 17 18 19 20 21 22 23 24 25 26 27 28 29 30 31 32 33 34 35 36 37 38 39 40 41 42 43 44 45 46 47 48 49 50
000
ASUS43 KOAX 210610
RWRNE

WEATHER ROUNDUP FOR NEBRASKA
NATIONAL WEATHER SERVICE OMAHA NE
1200 AM CST WED FEB 21 2018

NOTES: SATELLITE DATA IS BEING USED TO AUGMENT CLOUD COVER ABOVE
       12000 FEET.
       "FAIR" INDICATES FEW OR NO CLOUDS BELOW 12,000 FEET WITH NO
       SIGNIFICANT WEATHER AND/OR OBSTRUCTIONS TO VISIBILITY.


NEZ001>004-019>022-054>056-210700-
NEBRASKA PANHANDLE

CITY           SKY/WX    TMP DP  RH WIND       PRES   REMARKS
SCOTTSBLUFF    CLEAR     -6 -11  79 CALM      30.25S
6HR MIN TEMP:  -8; 6HR MAX TEMP:  11;

ALLIANCE       CLEAR    -21 -24  86 SW5       30.26R WCI -34
6HR MIN TEMP: -22; 6HR MAX TEMP:   4;

CHADRON        CLEAR    -10 -16  74 S8        30.30R WCI -26
6HR MIN TEMP: -14; 6HR MAX TEMP:   6;

GORDON         FAIR     -18 -23  75 CALM      30.26S
6HR MIN TEMP: -21; 6HR MAX TEMP:   4;

KIMBALL        CLEAR     -1  -8  75 SW9       30.20R WCI -17
SIDNEY         CLEAR      1  -4  79 SW9       30.25R WCI -14
6HR MIN TEMP: -12; 6HR MAX TEMP:   9;

$$

NEZ057>060-069>072-079>082-210700-
SOUTHWEST NEBRASKA

CITY           SKY/WX    TMP DP  RH WIND       PRES   REMARKS
NORTH PLATTE   MOCLDY    -4 -10  75 NW5       30.41R WCI -15
6HR MIN TEMP:  -8; 6HR MAX TEMP:  12;

IMPERIAL       CLOUDY     1  -4  79 SW5       30.36R WCI  -9
6HR MIN TEMP:   0; 6HR MAX TEMP:  12;

LEXINGTON      CLEAR      7   1  76 NW10      30.42R WCI  -8
MCCOOK         CLEAR      5   0  79 NW9       30.41R WCI  -9
6HR MIN TEMP:   5; 6HR MAX TEMP:  16;

OGALLALA       CLEAR     -4  -9  80 W3        30.36R
$$

NEZ005>010-023>029-035>040-094-210700-
NORTH CENTRAL NEBRASKA

CITY           SKY/WX    TMP DP  RH WIND       PRES   REMARKS
VALENTINE      CLEAR     -8 -14  74 W5        30.37R WCI -19
6HR MIN TEMP: -12; 6HR MAX TEMP:   7;

AINSWORTH      CLEAR     -4  -8  81 W8        30.36R WCI -19
BROKEN BOW     CLEAR     -4  -9  79 CALM      30.40R
6HR MIN TEMP:  -5; 6HR MAX TEMP:   9;

O`NEILL        CLEAR     -5  -8  87 SW5       30.41S WCI -16
ORD            CLEAR     -2  -5  87 NW3       30.43R
6HR MIN TEMP:  -2; 6HR MAX TEMP:  11;

THEDFORD       CLEAR     -6 -11  78 CALM      30.37R
$$

NEZ041-046>049-061>064-073>077-083>087-210700-
SOUTH CENTRAL NEBRASKA

CITY           SKY/WX    TMP DP  RH WIND       PRES   REMARKS
GRAND ISLAND   CLEAR      8   1  73 NW9       30.44R WCI  -5
6HR MIN TEMP:   8; 6HR MAX TEMP:  15;

AURORA         CLEAR      7   1  76 N7        30.44R WCI  -4
HASTINGS       CLOUDY     8   1  73 N5        30.45R WCI   0
6HR MIN TEMP:   8; 6HR MAX TEMP:  16;

HEBRON         CLOUDY    12   5  73 N7        30.46R WCI   1
HOLDREGE       CLOUDY     9   3  78 N7        30.40S WCI  -2
KEARNEY        CLEAR      6   1  80 NW8       30.43R WCI  -7
YORK           CLOUDY     9   5  85 N7        30.44R WCI  -3
$$

NEZ011>018-030>034-042>045-210700-
NORTHEAST NEBRASKA

CITY           SKY/WX    TMP DP  RH WIND       PRES   REMARKS
NORFOLK        CLEAR      5   0  79 NW8       30.44R WCI  -8
6HR MIN TEMP:   5; 6HR MAX TEMP:  11;

ALBION         CLOUDY     3  -2  79 N6        30.45R WCI  -8
BLAIR          CLOUDY    11   6  79 N8        30.45R WCI  -1
COLUMBUS       CLEAR      7   2  80 NW7       30.48R WCI  -5
FREMONT        CLEAR     10   4  78 NW5       30.48R WCI   2
TEKAMAH        CLOUDY    10   4  76 NW8       30.49R WCI  -2
6HR MIN TEMP:  10; 6HR MAX TEMP:  16;

WAYNE          PTCLDY     5   0  79 NW5       30.46R WCI  -4
$$

NEZ050>053-065>068-078-088>093-210700-
SOUTHEAST NEBRASKA

CITY           SKY/WX    TMP DP  RH WIND       PRES   REMARKS
LINCOLN        CLOUDY    10   4  76 N8        30.48R WCI  -2
6HR MIN TEMP:   9; 6HR MAX TEMP:  19;

OMAHA EPPLEY   CLOUDY    12   5  73 N10       30.47R WCI  -1
6HR MIN TEMP:  12; 6HR MAX TEMP:  17;

BEATRICE       CLOUDY    14   7  75 N12       30.45R WCI   0
FALLS CITY     PTCLDY    15   9  76 NW7       30.44R WCI   5
6HR MIN TEMP:  15; 6HR MAX TEMP:  20;

NEBRASKA CITY  CLOUDY    13   9  83 N13       30.43S WCI  -2
PLATTSMOUTH    CLOUDY    12   7  79 NW10      30.45R WCI  -1
$$

NEZ044-045-051>053-067-210700-
OMAHA AREA

CITY           SKY/WX    TMP DP  RH WIND       PRES   REMARKS
OMAHA EPPLEY   CLOUDY    12   5  73 N10       30.47R WCI  -1
6HR MIN TEMP:  12; 6HR MAX TEMP:  17;

BLAIR          CLOUDY    11   6  79 N8        30.45R WCI  -1
FREMONT        CLEAR     10   4  78 NW5       30.48R WCI   2
MILLARD        CLEAR     13   6  73 NW9       30.48R WCI   1
OFFUTT AFB     CLOUDY    12   5  72 NW9       30.46R WCI   0
PLATTSMOUTH    CLOUDY    12   7  79 NW10      30.45R WCI  -1
WAHOO          FAIR      11   5  77 N8        30.48R WCI  -1
$$



USA.gov is the U.S. government's official web portal to all federal, state and local government web resources and services.